NC4J Weather Reports


time (UTC)temp
C
wind
direction
speed
KPH
gust
KPH
rain 1hr
cm
rain 24hr
cm
rain mn
cm
humidity
%
barometer
mb
20260503204529 17 98 0.0 0.0 0.00 0.00 0.00 34 1017.0
20260503204026 17 124 3.2 3.2 0.00 0.00 0.00 32 1017.0
20260503203523 17 4 6.4 6.4 0.00 0.00 0.00 31 1017.3
20260503203020 17 318 4.8 4.8 0.00 0.00 0.00 34 1017.2
20260503202518 17 83 4.8 4.8 0.00 0.00 0.00 32 1017.2
20260503202015 17 63 3.2 3.2 0.00 0.00 0.00 34 1017.3
20260503201514 17 310 8.0 9.7 0.00 0.00 0.00 33 1017.4
20260503201010 17 29 1.6 1.6 0.00 0.00 0.00 33 1017.3
20260503200506 16 33 1.6 1.6 0.00 0.00 0.00 33 1017.6
20260503200003 17 133 6.4 9.7 0.00 0.00 0.00 33 1017.6
20260503195500 17 120 3.2 3.2 0.00 0.00 0.00 33 1017.9
20260503194957 17 26 1.6 1.6 0.00 0.00 0.00 34 1017.8
20260503194455 17 83 1.6 1.6 0.00 0.00 0.00 34 1018.0
20260503193949 16 335 6.4 6.4 0.00 0.00 0.00 33 1018.1
20260503193445 16 300 4.8 4.8 0.00 0.00 0.00 34 1018.2
20260503192941 16 307 6.4 6.4 0.00 0.00 0.00 34 1018.2
20260503192438 16 8 3.2 3.2 0.00 0.00 0.00 34 1018.2
20260503191933 16 321 9.7 12.9 0.00 0.00 0.00 33 1018.3
20260503191431 16 318 8.0 9.7 0.00 0.00 0.00 36 1018.4
20260503190927 16 355 1.6 1.6 0.00 0.00 0.00 34 1018.3
20260503190425 16 18 1.6 1.6 0.00 0.00 0.00 34 1018.6
20260503185921 15 358 3.2 3.2 0.00 0.00 0.00 33 1018.6
20260503185418 16 304 4.8 6.4 0.00 0.00 0.00 36 1018.6
20260503184917 16 35 1.6 1.6 0.00 0.00 0.00 35 1018.7
20260503184414 15 7 3.2 3.2 0.00 0.00 0.00 35 1018.7
20260503183910 15 72 0.0 0.0 0.00 0.00 0.00 33 1018.8
20260503183407 15 359 3.2 3.2 0.00 0.00 0.00 33 1018.7
20260503182904 15 65 4.8 4.8 0.00 0.00 0.00 34 1019.0
20260503182403 15 32 3.2 3.2 0.00 0.00 0.00 36 1019.1
20260503181859 15 91 1.6 1.6 0.00 0.00 0.00 37 1018.9
20260503181356 15 86 1.6 1.6 0.00 0.00 0.00 38 1019.3
20260503180853 15 121 4.8 4.8 0.00 0.00 0.00 35 1019.4
20260503180351 15 28 1.6 1.6 0.00 0.00 0.00 36 1019.1
20260503175847 14 142 1.6 1.6 0.00 0.00 0.00 37 1019.1
20260503175345 14 344 3.2 3.2 0.00 0.00 0.00 37 1019.5
20260503174841 14 68 3.2 4.8 0.00 0.00 0.00 35 1019.5
20260503174340 14 341 3.2 4.8 0.00 0.00 0.00 36 1019.4
20260503173839 14 218 3.2 3.2 0.00 0.00 0.00 35 1019.6
20260503173336 13 137 1.6 1.6 0.00 0.00 0.00 38 1019.5
20260503172833 13 122 3.2 3.2 0.00 0.00 0.00 38 1019.7
20260503172331 13 329 3.2 3.2 0.00 0.00 0.00 36 1019.6
20260503171832 13 309 3.2 3.2 0.00 0.00 0.00 37 1019.7
20260503171329 14 292 8.0 9.7 0.00 0.00 0.00 35 1020.0
20260503170826 14 94 6.4 6.4 0.00 0.00 0.00 35 1019.9
20260503170322 13 49 3.2 3.2 0.00 0.00 0.00 39 1019.8
20260503150715 10 3 0.0 0.0 0.00 0.00 0.00 48 1021.1
20260503150211 10 115 4.8 4.8 0.00 0.00 0.00 47 1021.2
20260503140135 8 333 4.8 4.8 0.00 0.00 0.00 53 1021.0
20260503131105 7 308 6.4 6.4 0.00 0.00 0.00 61 1020.9
20260503130602 7 291 4.8 6.4 0.00 0.00 0.00 64 1020.9
20260503110452 2 64 0.0 0.0 0.00 0.00 0.00 90 1019.9
20260503090344 3 112 1.6 1.6 0.00 0.00 0.00 81 1018.3
20260503081311 4 147 3.2 3.2 0.00 0.00 0.00 79 1017.8
20260503080807 4 114 1.6 1.6 0.00 0.00 0.00 79 1017.8
20260503080305 4 111 1.6 1.6 0.00 0.00 0.00 82 1018.0
20260503072741 5 118 1.6 1.6 0.00 0.00 0.00 76 1017.7
20260503072238 5 118 1.6 1.6 0.00 0.00 0.00 76 1017.4
20260503071734 5 117 0.0 0.0 0.00 0.00 0.00 77 1017.7
20260503071231 5 117 0.0 0.0 0.00 0.00 0.00 80 1017.6
20260503070728 5 117 0.0 0.0 0.00 0.00 0.00 77 1017.2
20260503070226 5 117 0.0 0.0 0.00 0.00 0.00 75 1017.4
20260503060151 5 101 1.6 1.6 0.00 0.00 0.00 74 1017.2
20260503054638 6 100 0.0 0.0 0.00 0.00 0.00 71 1017.4
20260503054135 6 100 1.6 1.6 0.00 0.00 0.00 69 1017.4
20260503053633 6 100 1.6 1.6 0.00 0.00 0.00 68 1017.3
20260503053131 6 100 0.0 0.0 0.00 0.00 0.00 68 1017.3
20260503052627 6 100 0.0 0.0 0.00 0.00 0.00 70 1017.1
20260503052124 7 100 0.0 0.0 0.00 0.00 0.00 64 1017.3
20260503051619 7 99 1.6 1.6 0.00 0.00 0.00 63 1017.3
20260503051117 7 99 1.6 1.6 0.00 0.00 0.00 62 1017.3
20260503050613 7 97 1.6 1.6 0.00 0.00 0.00 61 1017.3
20260503050110 8 79 1.6 1.6 0.00 0.00 0.00 59 1017.0
20260503045608 8 64 0.0 0.0 0.00 0.00 0.00 58 1017.2
20260503045105 8 64 0.0 0.0 0.00 0.00 0.00 57 1017.2
20260503044601 8 56 1.6 1.6 0.00 0.00 0.00 53 1017.6
20260503044059 8 45 1.6 3.2 0.00 0.00 0.00 53 1017.2
20260503043555 8 335 1.6 1.6 0.00 0.00 0.00 53 1017.2
20260503043052 8 23 1.6 1.6 0.00 0.00 0.00 53 1017.2
20260503042549 8 7 1.6 1.6 0.00 0.00 0.00 53 1017.1
20260503042045 8 351 0.0 0.0 0.00 0.00 0.00 54 1017.1
20260503041542 8 54 1.6 1.6 0.00 0.00 0.00 54 1016.8
20260503041040 8 49 1.6 1.6 0.00 0.00 0.00 54 1016.9
20260503040537 8 335 3.2 3.2 0.00 0.00 0.00 53 1016.8
20260503040034 8 16 1.6 1.6 0.00 0.00 0.00 54 1016.8
20260503035530 8 36 1.6 1.6 0.00 0.00 0.00 55 1016.6
20260503035029 8 30 1.6 1.6 0.00 0.00 0.00 57 1016.6
20260503034525 8 12 1.6 1.6 0.00 0.00 0.00 56 1016.8
20260503034022 8 50 0.0 0.0 0.00 0.00 0.00 56 1016.5
20260503033519 8 47 0.0 0.0 0.00 0.00 0.00 55 1016.7
20260503033018 8 24 0.0 0.0 0.00 0.00 0.00 55 1016.5
20260503032516 8 44 0.0 1.6 0.00 0.00 0.00 55 1016.5
20260503032013 8 47 1.6 1.6 0.00 0.00 0.00 56 1016.5
20260503031511 8 24 0.0 0.0 0.00 0.00 0.00 53 1016.6
20260503031008 8 26 1.6 1.6 0.00 0.00 0.00 54 1016.4
20260503030504 8 46 0.0 0.0 0.00 0.00 0.00 52 1016.3
20260503030001 8 55 1.6 1.6 0.00 0.00 0.00 51 1016.3
20260503025457 8 48 1.6 1.6 0.00 0.00 0.00 50 1016.4
20260503024955 9 24 0.0 0.0 0.00 0.00 0.00 51 1016.5
20260503024451 9 38 0.0 0.0 0.00 0.00 0.00 50 1016.4
20260503023949 9 39 0.0 0.0 0.00 0.00 0.00 49 1016.3
20260503023445 9 20 1.6 1.6 0.00 0.00 0.00 48 1016.3
20260503022942 10 13 0.0 0.0 0.00 0.00 0.00 48 1016.1
20260503022437 10 358 1.6 1.6 0.00 0.00 0.00 48 1016.2
20260503021934 10 326 1.6 1.6 0.00 0.00 0.00 47 1016.2
20260503021430 10 15 0.0 0.0 0.00 0.00 0.00 47 1016.1
20260503020927 10 8 1.6 1.6 0.00 0.00 0.00 48 1016.0
20260503020425 10 49 0.0 0.0 0.00 0.00 0.00 46 1016.0
20260503015921 10 350 1.6 1.6 0.00 0.00 0.00 46 1015.8
20260503015418 10 42 0.0 0.0 0.00 0.00 0.00 46 1015.6
20260503014914 10 42 1.6 1.6 0.00 0.00 0.00 45 1015.8
20260503014412 10 34 1.6 1.6 0.00 0.00 0.00 45 1015.5
20260503013909 10 12 1.6 1.6 0.00 0.00 0.00 45 1015.7
20260503013406 10 53 1.6 1.6 0.00 0.00 0.00 45 1015.8
20260503012903 10 3 1.6 1.6 0.00 0.00 0.00 44 1015.6
20260503012401 10 80 1.6 1.6 0.00 0.00 0.00 44 1015.4
20260503011857 10 348 6.4 6.4 0.00 0.00 0.00 43 1015.3
20260503011354 10 6 6.4 6.4 0.00 0.00 0.00 43 1015.3
20260503010851 10 6 3.2 1.6 0.00 0.00 0.00 43 1015.1
20260503010348 11 16 4.8 6.4 0.00 0.00 0.00 42 1015.3
20260503005845 11 21 1.6 3.2 0.00 0.00 0.00 43 1015.2
20260503005342 11 323 3.2 3.2 0.00 0.00 0.00 43 1015.0
20260503004838 11 65 0.0 0.0 0.00 0.00 0.00 43 1014.9
20260503004336 11 349 1.6 1.6 0.00 0.00 0.00 41 1014.9
20260503003833 11 34 0.0 0.0 0.00 0.00 0.00 41 1014.8
20260503003330 11 297 9.7 12.9 0.00 0.00 0.00 41 1014.7
20260503002827 11 3 1.6 1.6 0.00 0.00 0.00 41 1014.7
20260503002324 11 4 1.6 1.6 0.00 0.00 0.00 39 1014.6
20260503001820 11 339 1.6 1.6 0.00 0.00 0.00 39 1014.7
20260503001316 11 318 3.2 4.8 0.00 0.00 0.00 39 1014.8
20260503000814 11 66 3.2 3.2 0.00 0.00 0.00 40 1014.4
20260503000312 12 359 4.8 4.8 0.00 0.00 0.00 38 1014.5
20260502235809 12 52 1.6 1.6 0.00 0.00 0.00 39 1014.2
20260502235306 12 56 1.6 1.6 0.00 0.00 0.00 38 1014.1
20260502234802 12 345 3.2 6.4 0.00 0.00 0.00 36 1014.0
20260502234259 12 3 3.2 3.2 0.00 0.00 0.00 36 1014.0
20260502233755 13 5 4.8 4.8 0.00 0.00 0.00 36 1013.8
20260502233253 13 357 4.8 4.8 0.00 0.00 0.00 35 1013.9
20260502232749 13 334 3.2 3.2 0.00 0.00 0.00 34 1013.7
20260502232245 13 357 3.2 3.2 0.00 0.00 0.00 34 1013.8
20260502231742 13 308 4.8 4.8 0.00 0.00 0.00 34 1013.4
20260502231240 13 339 4.8 4.8 0.00 0.00 0.00 35 1013.6
20260502230739 13 23 1.6 1.6 0.00 0.00 0.00 35 1013.6
20260502230236 13 22 1.6 1.6 0.00 0.00 0.00 34 1013.5
20260502225732 13 307 3.2 4.8 0.00 0.00 0.00 35 1013.6
20260502225229 13 342 4.8 6.4 0.00 0.00 0.00 34 1013.6
20260502224726 13 56 6.4 9.7 0.00 0.00 0.00 33 1013.7
20260502224222 13 355 6.4 6.4 0.00 0.00 0.00 38 1013.6
20260502223720 13 311 11.3 14.5 0.00 0.00 0.00 34 1013.8
20260502223218 13 330 6.4 6.4 0.00 0.00 0.00 34 1013.7
20260502222715 13 43 3.2 3.2 0.00 0.00 0.00 34 1013.6
20260502222212 13 306 3.2 4.8 0.00 0.00 0.00 33 1013.4
20260502221708 13 42 3.2 6.4 0.00 0.00 0.00 35 1013.7
20260502221205 15 12 8.0 12.9 0.00 0.00 0.00 33 1013.4
20260502220700 14 350 3.2 3.2 0.00 0.00 0.00 35 1013.4
20260502220157 14 56 4.8 4.8 0.00 0.00 0.00 33 1013.3
20260502215654 15 351 6.4 9.7 0.00 0.00 0.00 33 1012.9
20260502215151 15 345 6.4 9.7 0.00 0.00 0.00 33 1013.1
20260502214648 15 333 3.2 3.2 0.00 0.00 0.00 33 1012.9
20260502214145 14 281 14.5 16.1 0.00 0.00 0.00 35 1012.8
20260502213643 13 332 6.4 6.4 0.00 0.00 0.00 35 1012.8
20260502213140 13 52 6.4 9.7 0.00 0.00 0.00 35 1012.6
20260502212639 13 32 1.6 1.6 0.00 0.00 0.00 36 1012.8
20260502212137 13 55 3.2 4.8 0.00 0.00 0.00 36 1012.9
20260502211632 13 358 3.2 4.8 0.00 0.00 0.00 33 1012.8
20260502211129 14 109 3.2 4.8 0.00 0.00 0.00 32 1012.6
20260502210627 14 311 9.7 11.3 0.00 0.00 0.00 39 1012.8
20260502210124 14 18 3.2 3.2 0.00 0.00 0.00 32 1012.5
20260502205620 15 23 6.4 6.4 0.00 0.00 0.00 33 1012.5
20260502205117 15 8 4.8 6.4 0.00 0.00 0.00 32 1012.5